{"data":{"norad_id":64962,"epoch":"2026-05-25T04:43:48.868896Z","epoch_age_seconds":68180,"freshness":"FRESH","line1":"1 64962U 25160A   26145.19709339  .00033233  00000+0  82843-3 0  9991","line2":"2 64962  97.3620 222.9058 0005642 279.3348  80.7260 15.40134644 45876","mean_motion":15.40134644,"eccentricity":0.0005642,"inclination_deg":97.362,"raan_deg":222.9058,"arg_perigee_deg":279.3348,"mean_anomaly_deg":80.726,"bstar":0.00082843,"rev_number":4587,"period_min":93.498318839194,"perigee_km":441.8615637023,"apogee_km":449.56159443892,"semimajor_km":6823.8485790706,"source":"CELESTRAK","updated_at":"2026-05-25T13:38:04.942615Z"}}